This is the latest recevied weather packets stored in our database for station/object JA0ZJX-13. If no packets are shown the sender has not sent any weather packets the latest 10 day(s).
| Time | Temp. | Humidity | Pressure | Rain* | Wind** | Luminosity | Snow |
|---|---|---|---|---|---|---|---|
| 1777816405 | 15° C | 87% | 1003.1 hPa | 0.76 mm | - | 0 W/m² | - |
| 1777815813 | 15° C | 87% | 1003 hPa | 0.76 mm | - | 0 W/m² | - |
| 1777815207 | 15° C | 87% | 1003.2 hPa | 0.76 mm | - | 0 W/m² | - |
| 1777814616 | 15° C | 87% | 1003.5 hPa | 1.02 mm | - | 0 W/m² | - |
| 1777814005 | 14.44° C | 87% | 1003.7 hPa | 0.76 mm | - | 0 W/m² | - |
| 1777813419 | 14.44° C | 87% | 1003.7 hPa | 0.76 mm | - | 0 W/m² | - |
| 1777812807 | 14.44° C | 87% | 1003.9 hPa | 1.27 mm | - | 0 W/m² | - |
| 1777812217 | 13.89° C | 87% | 1004.4 hPa | 1.02 mm | - | 0 W/m² | - |
| 1777811605 | 13.89° C | 87% | 1004.7 hPa | 1.02 mm | - | 0 W/m² | - |
| 1777811019 | 13.89° C | 87% | 1004.6 hPa | 1.02 mm | - | 0 W/m² | - |
| 1777810407 | 13.89° C | 87% | 1004.7 hPa | 1.52 mm | - | 0 W/m² | - |
| 1777809817 | 13.89° C | 87% | 1004.9 hPa | 1.52 mm | - | 0 W/m² | - |
| 1777809204 | 13.89° C | 87% | 1005.1 hPa | 1.27 mm | - | 0 W/m² | - |
| 1777808617 | 13.89° C | 87% | 1005.4 hPa | 1.52 mm | - | 0 W/m² | - |
| 1777808004 | 13.33° C | 87% | 1005.7 hPa | 1.52 mm | - | 0 W/m² | - |
| 1777807411 | 13.33° C | 87% | 1005.7 hPa | 1.52 mm | - | 0 W/m² | - |
| 1777806804 | 13.33° C | 87% | 1006.1 hPa | 1.52 mm | - | 0 W/m² | - |
| 1777806213 | 13.33° C | 87% | 1006.1 hPa | 1.52 mm | - | 0 W/m² | - |
| 1777805622 | 13.33° C | 87% | 1006 hPa | 1.52 mm | - | 0 W/m² | - |
| 1777805011 | 13.33° C | 86% | 1006 hPa | 1.52 mm | - | 0 W/m² | - |
| 1777804405 | 13.33° C | 86% | 1006.2 hPa | 1.52 mm | - | 0 W/m² | - |
| 1777803815 | 13.33° C | 85% | 1007.1 hPa | 1.27 mm | - | 0 W/m² | - |
| 1777803223 | 13.33° C | 84% | 1007.2 hPa | 1.02 mm | - | 0 W/m² | - |
| 1777802612 | 13.33° C | 83% | 1007.4 hPa | 0.76 mm | - | 0 W/m² | - |
| 1777802006 | 13.89° C | 82% | 1007.3 hPa | 0.51 mm | - | 0 W/m² | - |
* Rain latest hour (hover to see other rain measurements)
** Current wind speed in m/s (hover to see current wind gust speed)